TimeAKST,TemperatureF,Dew PointF,Humidity,Sea Level PressureIn,VisibilityMPH,Wind Direction,Wind SpeedMPH,Gust SpeedMPH,PrecipitationIn,Events,Conditions,WindDirDegrees,DateUTC
12:53 AM,23.0,1.0,39,29.75,10.0,NNE,10.4,-,N/A,,Mostly Cloudy,30,2013-12-23 09:53:00
1:53 AM,21.0,1.0,42,29.80,10.0,NNE,8.1,-,N/A,,Mostly Cloudy,20,2013-12-23 10:53:00
3:53 AM,17.1,1.9,52,29.83,10.0,ENE,6.9,-,N/A,,Scattered Clouds,60,2013-12-23 12:53:00
4:53 AM,18.0,1.9,50,29.83,10.0,NE,8.1,-,N/A,,Mostly Cloudy,50,2013-12-23 13:53:00
5:53 AM,17.1,3.0,54,29.86,10.0,NNE,5.8,-,N/A,,Scattered Clouds,30,2013-12-23 14:53:00
6:53 AM,18.0,1.0,48,29.87,10.0,NNE,8.1,-,N/A,,Clear,30,2013-12-23 15:53:00
7:53 AM,18.0,1.0,48,29.88,10.0,ENE,8.1,-,N/A,,Clear,60,2013-12-23 16:53:00
8:53 AM,19.0,-0.0,43,29.91,10.0,NNE,5.8,-,N/A,,Clear,20,2013-12-23 17:53:00
9:53 AM,16.0,-0.0,49,29.94,10.0,Calm,Calm,-,N/A,,Clear,0,2013-12-23 18:53:00
10:53 AM,10.0,-2.0,58,29.96,10.0,Calm,Calm,-,N/A,,Clear,0,2013-12-23 19:53:00
11:53 AM,10.9,-0.0,61,29.99,10.0,NE,3.5,-,N/A,,Clear,40,2013-12-23 20:53:00
12:53 PM,15.1,1.9,56,30.01,10.0,ENE,5.8,-,N/A,,Clear,60,2013-12-23 21:53:00
1:53 PM,16.0,3.0,57,30.03,10.0,NNE,3.5,-,N/A,,Clear,20,2013-12-23 22:53:00
2:53 PM,15.1,3.0,59,30.05,10.0,NNE,4.6,-,N/A,,Clear,30,2013-12-23 23:53:00
3:53 PM,12.9,1.9,62,30.05,10.0,NNE,4.6,-,N/A,,Clear,20,2013-12-24 00:53:00
4:53 PM,10.9,1.0,64,30.06,10.0,NNE,5.8,-,N/A,,Clear,20,2013-12-24 01:53:00
5:53 PM,7.0,-0.0,73,30.09,10.0,NE,3.5,-,N/A,,Clear,50,2013-12-24 02:53:00
6:53 PM,9.0,1.9,73,30.10,10.0,North,3.5,-,N/A,,Clear,350,2013-12-24 03:53:00
7:53 PM,8.1,-0.0,70,30.12,10.0,Calm,Calm,-,N/A,,Clear,0,2013-12-24 04:53:00
8:53 PM,1.0,-5.1,75,30.14,10.0,Calm,Calm,-,N/A,,Clear,0,2013-12-24 05:53:00
9:53 PM,1.0,-4.0,79,30.15,9.0,Calm,Calm,-,N/A,,Clear,0,2013-12-24 06:53:00
10:53 PM,1.0,-6.0,72,30.16,10.0,ENE,4.6,-,N/A,,Clear,60,2013-12-24 07:53:00
11:53 PM,-0.0,-6.0,76,30.17,10.0,Calm,Calm,-,N/A,,Clear,0,2013-12-24 08:53:00